{"data":{"norad_id":61729,"epoch":"2026-05-25T03:36:15.239232Z","epoch_age_seconds":55262,"freshness":"FRESH","line1":"1 61729U 24196Y   26145.15017638 -.00001003  00000+0 -21749-4 0  9998","line2":"2 61729  53.1586 106.1398 0001756  93.7307 266.3895 15.30181690 88864","mean_motion":15.3018169,"eccentricity":0.0001756,"inclination_deg":53.1586,"raan_deg":106.1398,"arg_perigee_deg":93.7307,"mean_anomaly_deg":266.3895,"bstar":-2.1749e-5,"rev_number":8886,"period_min":94.106471761533,"perigee_km":474.06628210047,"apogee_km":476.47319854767,"semimajor_km":6853.4067403241,"source":"CELESTRAK","updated_at":"2026-05-25T13:38:19.448960Z"}}